Location: Codford Saint Peter
(51.1597°N, 2.0531°W)
Time: 22:52:30
(UTC+00:00)

Resurs 1-3 - Pass Details

Date: 18 September 2020
Orbit: 630 x 632 km, 97.9° (Epoch: 20 October)

Event Time Altitude Azimuth Distance (km) Brightness Sun altitude
Exits shadow 20:01:15 27° 148° (SSE) 1,222 4.6 -17.0°
Maximum altitude 20:03:34 68° 72° (ENE) 687 3.5 -17.3°
Drops below altitude 10° 20:07:57 10° 350° (N) 2,026 6.7 -17.9°
Sets 20:10:10 0° 348° (NNW) 2,939 7.6 -18.2°
